Starlink 35826

operational
NORAD ID: 66375 Int'l Des: 2025-254 Owner: SPXS Country: US Constellation: starlink
NOTLE

About Starlink 35826

Description loading...

Live Position

Loading 3D Globe...

Upcoming Passes

Altitude History

Altitude vs Time

uPlot chart will show altitude changes over time

Two-Line Element Set

1 66375U 25254AD 26013.28838413 .00020482 00000-0 70153-3 0 9999
2 66375 53.1607 126.8912 0001630 80.2504 279.8680 15.30210535 10533
Epoch: Jan 13, 2026 • Age: 10 hours

Current Status

Altitude 475.0 km
Velocity 7.63 km/s
Sub-Earth Point 19.95°N, 141.04°E
Launch Date Nov 6, 2025
Age 0.1 years
Type internet

Technical Details

Classification Payload
Mass 575.00 kg
Dry Mass 530.00 kg
Total Mass 575.00 kg
Length 0.30 m
Diameter 4.10 m
Span 29.00 m
Shape Box + pan
Manufacturer SPXS
Bus Type Starlink V2MO
Phase Status In Orbit
Owner/State SPXS/US

Large Constellations

Loading constellations...